Retour au catalogue

IRIDIUM 121

ActifCommunicationsPO
NORAD 42812·PAYLOAD·🇺🇸 United States

Lancé Jun 25, 2017 depuis Vandenberg Space Force Base

Loading…

Prochains Passages (prochaines 24 heures)

TLE

FraisSource: CelesTrak SupGP

Époque: Sep 14, 2026, 10:03 UTC

1 42812C 17039K   26257.41909722 -.00001267  00000+0 -45319-3 0  2572
2 42812  86.3978 316.3947 0002215  96.0707 354.3221 14.34216065    15

Suivez IRIDIUM 121 en temps réel avec AllMySat

Download on the App Store